Time,TemperatureF,DewpointF,PressureIn,WindDirection,WindDirectionDegrees,WindSpeedMPH,WindSpeedGustMPH,Humidity,HourlyPrecipIn,Conditions,Clouds,dailyrainin,SoftwareType,DateUTC
2013-05-18 00:03:00,44.3,0.0,30.15,SSW,198,0.0,0.0,0,0.00,,BKN044,0.00,VWS V13.01,2013-05-18 07:03:00,
2013-05-18 00:08:00,44.2,0.0,30.15,SSW,198,0.0,0.0,0,0.00,,BKN044,0.00,VWS V13.01,2013-05-18 07:08:00,
2013-05-18 00:13:00,44.2,0.0,30.15,SSW,198,0.0,0.0,0,0.00,,BKN044,0.00,VWS V13.01,2013-05-18 07:13:00,
2013-05-18 00:18:00,44.1,0.0,30.16,SSW,198,0.0,0.0,0,0.00,,BKN044,0.00,VWS V13.01,2013-05-18 07:18:00,
2013-05-18 00:23:00,44.0,0.0,30.16,SSW,198,0.0,0.0,0,0.00,,BKN044,0.00,VWS V13.01,2013-05-18 07:23:00,
2013-05-18 00:28:00,44.0,0.0,30.16,SSW,198,0.0,0.0,0,0.00,,BKN044,0.00,VWS V13.01,2013-05-18 07:28:00,
2013-05-18 00:33:00,44.0,0.0,30.16,SSW,198,0.0,1.0,0,0.00,,BKN044,0.00,VWS V13.01,2013-05-18 07:33:00,
2013-05-18 00:38:00,43.9,0.0,30.16,SSW,198,0.0,1.0,0,0.00,,BKN044,0.00,VWS V13.01,2013-05-18 07:38:00,
2013-05-18 00:43:00,43.8,0.0,30.16,SSW,198,0.0,1.0,0,0.00,,BKN044,0.00,VWS V13.01,2013-05-18 07:43:00,
2013-05-18 00:48:00,43.8,0.0,30.16,SSW,198,0.0,0.0,0,0.00,,BKN044,0.00,VWS V13.01,2013-05-18 07:48:00,
2013-05-18 00:53:00,43.8,0.0,30.16,SSW,198,0.0,0.0,0,0.00,,OVC048,0.00,VWS V13.01,2013-05-18 07:53:00,
2013-05-18 00:59:00,44.0,0.0,30.16,SSW,198,0.0,0.0,0,0.00,,OVC048,0.00,VWS V13.01,2013-05-18 07:59:00,
2013-05-18 01:04:00,44.1,0.0,30.15,SSW,198,0.0,0.0,0,0.00,,OVC048,0.00,VWS V13.01,2013-05-18 08:04:00,
2013-05-18 01:09:00,44.1,0.0,30.15,SSW,198,0.0,0.0,0,0.00,,OVC048,0.00,VWS V13.01,2013-05-18 08:09:00,
2013-05-18 01:14:00,44.2,0.0,30.15,SSW,198,0.0,0.0,0,0.00,,OVC048,0.00,VWS V13.01,2013-05-18 08:14:00,
2013-05-18 01:19:00,44.2,0.0,30.15,SSW,198,0.0,0.0,0,0.00,,OVC048,0.00,VWS V13.01,2013-05-18 08:19:00,
2013-05-18 01:24:00,44.2,0.0,30.15,SSW,198,0.0,0.0,0,0.00,,OVC048,0.00,VWS V13.01,2013-05-18 08:24:00,
2013-05-18 01:29:00,44.2,0.0,30.15,SSW,198,0.0,0.0,0,0.00,,OVC048,0.00,VWS V13.01,2013-05-18 08:29:00,
2013-05-18 01:34:00,44.3,0.0,30.15,SSW,198,0.0,0.0,0,0.00,,OVC048,0.00,VWS V13.01,2013-05-18 08:34:00,
2013-05-18 01:39:00,44.3,0.0,30.15,SSW,198,0.0,0.0,0,0.00,,OVC048,0.00,VWS V13.01,2013-05-18 08:39:00,
2013-05-18 01:44:00,44.4,0.0,30.15,SSW,198,0.0,0.0,0,0.00,,OVC048,0.00,VWS V13.01,2013-05-18 08:44:00,
2013-05-18 01:49:00,44.4,0.0,30.15,SSW,198,0.0,0.0,0,0.00,,OVC055,0.00,VWS V13.01,2013-05-18 08:49:00,
2013-05-18 01:54:00,44.5,0.0,30.15,SSW,198,0.0,0.0,0,0.00,,OVC055,0.00,VWS V13.01,2013-05-18 08:54:00,
2013-05-18 02:00:00,44.5,0.0,30.15,SSW,198,0.0,0.0,0,0.00,,OVC055,0.00,VWS V13.01,2013-05-18 09:00:00,
2013-05-18 02:05:00,44.6,0.0,30.16,SSW,198,0.0,0.0,0,0.00,,OVC055,0.00,VWS V13.01,2013-05-18 09:05:00,
2013-05-18 02:10:00,44.7,0.0,30.16,SSW,198,0.0,0.0,0,0.00,,OVC055,0.00,VWS V13.01,2013-05-18 09:10:00,
2013-05-18 02:15:00,44.7,0.0,30.16,SSW,198,0.0,0.0,0,0.00,,OVC055,0.00,VWS V13.01,2013-05-18 09:15:00,
2013-05-18 02:20:00,44.8,0.0,30.15,SSW,198,0.0,0.0,0,0.00,,OVC055,0.00,VWS V13.01,2013-05-18 09:20:00,
2013-05-18 02:25:00,44.9,0.0,30.15,SSW,198,0.0,0.0,0,0.00,,OVC055,0.00,VWS V13.01,2013-05-18 09:25:00,
2013-05-18 02:30:00,44.9,0.0,30.15,SSW,198,0.0,0.0,0,0.00,,OVC055,0.00,VWS V13.01,2013-05-18 09:30:00,
2013-05-18 02:35:00,45.0,0.0,30.15,SSW,198,0.0,0.0,0,0.00,,OVC055,0.00,VWS V13.01,2013-05-18 09:35:00,
2013-05-18 02:40:00,45.0,0.0,30.15,SSW,198,0.0,0.0,0,0.00,,OVC055,0.00,VWS V13.01,2013-05-18 09:40:00,
2013-05-18 02:45:00,45.1,0.0,30.15,SSW,198,0.0,0.0,0,0.00,,OVC055,0.00,VWS V13.01,2013-05-18 09:45:00,
2013-05-18 02:50:00,45.1,0.0,30.15,SSW,198,0.0,0.0,0,0.00,,OVC055,0.00,VWS V13.01,2013-05-18 09:50:00,
2013-05-18 02:55:00,45.2,0.0,30.15,SSW,198,0.0,0.0,0,0.00,,OVC055,0.00,VWS V13.01,2013-05-18 09:55:00,
2013-05-18 03:01:00,45.3,0.0,30.15,SSW,198,0.0,0.0,0,0.00,,OVC055,0.00,VWS V13.01,2013-05-18 10:01:00,
2013-05-18 03:06:00,45.3,0.0,30.15,SSW,198,0.0,0.0,0,0.00,,OVC055,0.00,VWS V13.01,2013-05-18 10:06:00,
2013-05-18 03:11:00,45.4,0.0,30.15,SSW,198,0.0,0.0,0,0.00,,OVC055,0.00,VWS V13.01,2013-05-18 10:11:00,
2013-05-18 03:16:00,45.4,0.0,30.15,SSW,198,0.0,0.0,0,0.00,,OVC055,0.00,VWS V13.01,2013-05-18 10:16:00,
2013-05-18 03:21:00,45.5,0.0,30.15,SSW,198,0.0,0.0,0,0.00,,OVC055,0.00,VWS V13.01,2013-05-18 10:21:00,
2013-05-18 03:26:00,45.5,0.0,30.15,SSW,198,0.0,0.0,0,0.00,,OVC055,0.00,VWS V13.01,2013-05-18 10:26:00,
2013-05-18 03:31:00,45.5,0.0,30.15,SSW,198,0.0,0.0,0,0.00,,OVC055,0.00,VWS V13.01,2013-05-18 10:31:00,
2013-05-18 03:36:00,45.6,0.0,30.15,SSW,198,0.0,0.0,0,0.00,,OVC055,0.00,VWS V13.01,2013-05-18 10:36:00,
2013-05-18 03:41:00,45.6,0.0,30.15,SSW,198,0.0,0.0,0,0.00,,OVC055,0.00,VWS V13.01,2013-05-18 10:41:00,
2013-05-18 03:46:00,45.7,0.0,30.15,SSW,198,0.0,0.0,0,0.00,,OVC055,0.00,VWS V13.01,2013-05-18 10:46:00,
2013-05-18 03:51:00,45.7,0.0,30.15,SSW,198,0.0,0.0,0,0.00,,OVC110,0.00,VWS V13.01,2013-05-18 10:51:00,
2013-05-18 03:57:00,45.7,0.0,30.15,SSW,198,0.0,0.0,0,0.00,,OVC110,0.00,VWS V13.01,2013-05-18 10:57:00,
2013-05-18 04:02:00,45.7,0.0,30.14,SSW,198,0.0,0.0,0,0.00,,OVC110,0.00,VWS V13.01,2013-05-18 11:02:00,
2013-05-18 04:07:00,45.8,0.0,30.15,SSW,198,0.0,0.0,0,0.00,,OVC110,0.00,VWS V13.01,2013-05-18 11:07:00,
2013-05-18 04:12:00,45.8,0.0,30.15,SSW,198,0.0,0.0,0,0.00,,OVC110,0.00,VWS V13.01,2013-05-18 11:12:00,
2013-05-18 04:17:00,45.8,0.0,30.15,SSW,198,0.0,0.0,0,0.00,,OVC110,0.00,VWS V13.01,2013-05-18 11:17:00,
2013-05-18 04:22:00,45.9,0.0,30.14,SSW,198,0.0,0.0,0,0.00,,OVC110,0.00,VWS V13.01,2013-05-18 11:22:00,
2013-05-18 04:27:00,45.9,0.0,30.14,SSW,198,0.0,0.0,0,0.00,,OVC110,0.00,VWS V13.01,2013-05-18 11:27:00,
2013-05-18 04:32:00,46.0,0.0,30.14,SSW,198,0.0,0.0,0,0.00,,OVC110,0.00,VWS V13.01,2013-05-18 11:32:00,
2013-05-18 04:37:00,46.0,0.0,30.15,SSW,198,0.0,0.0,0,0.00,,OVC110,0.00,VWS V13.01,2013-05-18 11:37:00,
2013-05-18 04:42:00,46.0,0.0,30.14,SSW,198,0.0,0.0,0,0.00,,OVC110,0.00,VWS V13.01,2013-05-18 11:42:00,
2013-05-18 04:47:00,46.0,0.0,30.14,SSW,198,0.0,0.0,0,0.00,,OVC110,0.00,VWS V13.01,2013-05-18 11:47:00,
2013-05-18 04:53:00,46.0,0.0,30.14,SSW,198,0.0,0.0,0,0.00,,OVC095,0.00,VWS V13.01,2013-05-18 11:53:00,
2013-05-18 04:58:00,46.1,0.0,30.14,SSW,198,0.0,0.0,0,0.00,,OVC095,0.00,VWS V13.01,2013-05-18 11:58:00,
2013-05-18 05:03:00,46.1,0.0,30.14,SSW,198,0.0,0.0,0,0.00,,OVC095,0.00,VWS V13.01,2013-05-18 12:03:00,
2013-05-18 05:08:00,46.1,0.0,30.14,SSW,198,0.0,0.0,0,0.00,,OVC095,0.00,VWS V13.01,2013-05-18 12:08:00,
2013-05-18 05:13:00,46.1,0.0,30.14,SSW,198,0.0,0.0,0,0.00,,OVC095,0.00,VWS V13.01,2013-05-18 12:13:00,
2013-05-18 05:18:00,46.1,0.0,30.14,SSW,198,0.0,0.0,0,0.00,,OVC095,0.00,VWS V13.01,2013-05-18 12:18:00,
2013-05-18 05:23:00,46.1,0.0,30.14,SSW,198,0.0,0.0,0,0.00,,OVC095,0.00,VWS V13.01,2013-05-18 12:23:00,
2013-05-18 05:28:00,46.2,0.0,30.14,SSW,198,0.0,0.0,0,0.00,,OVC095,0.00,VWS V13.01,2013-05-18 12:28:00,
2013-05-18 05:33:00,46.2,0.0,30.14,SSW,198,0.0,0.0,0,0.00,,OVC095,0.00,VWS V13.01,2013-05-18 12:33:00,
2013-05-18 05:38:00,46.2,0.0,30.14,SSW,198,0.0,0.0,0,0.00,,OVC095,0.01,VWS V13.01,2013-05-18 12:38:00,
2013-05-18 05:44:00,46.3,0.0,30.15,SSW,198,0.0,0.0,0,0.01,,OVC095,0.01,VWS V13.01,2013-05-18 12:44:00,
2013-05-18 05:49:00,46.3,0.0,30.14,SSW,198,0.0,0.0,0,0.01,,OVC095,0.01,VWS V13.01,2013-05-18 12:49:00,
2013-05-18 05:54:00,46.3,0.0,30.15,SSW,198,0.0,0.0,0,0.01,,BKN085,0.01,VWS V13.01,2013-05-18 12:54:00,
2013-05-18 05:59:00,46.4,0.0,30.14,SSW,198,0.0,0.0,0,0.01,,BKN085,0.01,VWS V13.01,2013-05-18 12:59:00,
2013-05-18 06:04:00,46.4,0.0,30.15,SSW,198,0.0,0.0,0,0.01,,BKN085,0.01,VWS V13.01,2013-05-18 13:04:00,
2013-05-18 06:09:00,46.4,0.0,30.14,SSW,198,0.0,0.0,0,0.01,,BKN085,0.01,VWS V13.01,2013-05-18 13:09:00,
2013-05-18 06:14:00,46.4,0.0,30.14,SSW,198,0.0,0.0,0,0.01,,BKN085,0.01,VWS V13.01,2013-05-18 13:14:00,
2013-05-18 06:19:00,46.5,0.0,30.14,SSW,198,0.0,0.0,0,0.01,,BKN085,0.01,VWS V13.01,2013-05-18 13:19:00,
2013-05-18 06:24:00,46.5,0.0,30.15,SSW,198,0.0,0.0,0,0.01,,BKN085,0.01,VWS V13.01,2013-05-18 13:24:00,
2013-05-18 06:29:00,46.6,0.0,30.15,SSW,198,0.0,0.0,0,0.01,,BKN085,0.01,VWS V13.01,2013-05-18 13:29:00,
2013-05-18 06:34:00,46.6,0.0,30.15,SSW,198,0.0,0.0,0,0.01,,BKN085,0.01,VWS V13.01,2013-05-18 13:34:00,
2013-05-18 06:39:00,46.7,0.0,30.15,SSW,198,0.0,0.0,0,0.01,,BKN085,0.01,VWS V13.01,2013-05-18 13:39:00,
2013-05-18 06:44:00,46.7,0.0,30.15,SSW,198,0.0,0.0,0,0.01,,BKN085,0.01,VWS V13.01,2013-05-18 13:44:00,
2013-05-18 06:50:00,46.7,0.0,30.15,SSW,198,0.0,0.0,0,0.00,,OVC110,0.01,VWS V13.01,2013-05-18 13:50:00,
2013-05-18 06:55:00,46.9,0.0,30.15,SSW,198,0.0,0.0,0,0.00,,OVC110,0.01,VWS V13.01,2013-05-18 13:55:00,
2013-05-18 07:00:00,47.0,0.0,30.15,SSW,198,0.0,0.0,0,0.00,,OVC110,0.01,VWS V13.01,2013-05-18 14:00:00,
2013-05-18 07:05:00,47.0,0.0,30.16,SSW,198,0.0,0.0,0,0.00,,OVC110,0.01,VWS V13.01,2013-05-18 14:05:00,
2013-05-18 07:10:00,47.0,0.0,30.16,SSW,198,0.0,0.0,0,0.00,,OVC110,0.01,VWS V13.01,2013-05-18 14:10:00,
2013-05-18 07:15:00,47.1,0.0,30.16,SE,135,0.0,0.0,0,0.00,,OVC110,0.01,VWS V13.01,2013-05-18 14:15:00,
2013-05-18 07:20:00,47.2,0.0,30.16,SE,135,1.0,1.0,0,0.00,,OVC110,0.01,VWS V13.01,2013-05-18 14:20:00,
2013-05-18 07:25:00,47.3,0.0,30.16,ESE,121,0.0,2.0,0,0.00,,OVC110,0.01,VWS V13.01,2013-05-18 14:25:00,
2013-05-18 07:30:00,47.4,0.0,30.16,ESE,121,0.0,0.0,0,0.00,,OVC110,0.01,VWS V13.01,2013-05-18 14:30:00,
2013-05-18 07:35:00,47.4,0.0,30.16,ESE,121,0.0,0.0,0,0.00,,OVC110,0.01,VWS V13.01,2013-05-18 14:35:00,
2013-05-18 07:40:00,47.6,0.0,30.16,ESE,121,0.0,0.0,0,0.00,,OVC110,0.01,VWS V13.01,2013-05-18 14:40:00,
2013-05-18 07:45:00,47.8,0.0,30.16,ESE,121,0.0,1.0,0,0.00,,OVC110,0.01,VWS V13.01,2013-05-18 14:45:00,
2013-05-18 07:50:00,47.9,0.0,30.16,ESE,121,0.0,1.0,0,0.00,,OVC085,0.01,VWS V13.01,2013-05-18 14:50:00,
2013-05-18 07:55:00,48.1,0.0,30.16,ESE,121,0.0,1.0,0,0.00,,OVC085,0.01,VWS V13.01,2013-05-18 14:55:00,
2013-05-18 08:01:00,48.2,0.0,30.16,ESE,121,0.0,0.0,0,0.00,,OVC085,0.01,VWS V13.01,2013-05-18 15:01:00,
2013-05-18 08:06:00,48.3,0.0,30.17,ESE,121,0.0,0.0,0,0.00,,OVC085,0.01,VWS V13.01,2013-05-18 15:06:00,
2013-05-18 08:11:00,48.5,0.0,30.17,ESE,121,0.0,0.0,0,0.00,,OVC085,0.01,VWS V13.01,2013-05-18 15:11:00,
2013-05-18 08:16:00,48.7,0.0,30.17,ESE,121,0.0,0.0,0,0.00,,OVC085,0.01,VWS V13.01,2013-05-18 15:16:00,
2013-05-18 08:21:00,48.9,0.0,30.17,ESE,121,0.0,0.0,0,0.00,,OVC085,0.01,VWS V13.01,2013-05-18 15:21:00,
2013-05-18 08:26:00,49.1,0.0,30.17,ESE,121,0.0,0.0,0,0.00,,OVC085,0.01,VWS V13.01,2013-05-18 15:26:00,
2013-05-18 08:31:00,49.3,0.0,30.17,ESE,121,0.0,0.0,0,0.00,,OVC085,0.01,VWS V13.01,2013-05-18 15:31:00,
2013-05-18 08:36:00,49.5,0.0,30.17,ESE,121,0.0,0.0,0,0.00,,OVC085,0.01,VWS V13.01,2013-05-18 15:36:00,
2013-05-18 08:41:00,49.7,0.0,30.17,ESE,121,0.0,1.0,0,0.00,,OVC085,0.01,VWS V13.01,2013-05-18 15:41:00,
2013-05-18 08:46:00,49.9,0.0,30.17,ESE,121,0.0,0.0,0,0.00,,OVC085,0.01,VWS V13.01,2013-05-18 15:46:00,
2013-05-18 08:51:00,50.1,0.0,30.17,ESE,121,0.0,0.0,0,0.00,,OVC065,0.01,VWS V13.01,2013-05-18 15:51:00,
2013-05-18 08:57:00,50.4,0.0,30.17,ESE,121,0.0,0.0,0,0.00,,OVC065,0.01,VWS V13.01,2013-05-18 15:57:00,
2013-05-18 09:02:00,50.6,0.0,30.17,ESE,121,0.0,0.0,0,0.00,,OVC065,0.01,VWS V13.01,2013-05-18 16:02:00,
2013-05-18 09:07:00,50.8,0.0,30.17,ESE,121,0.0,0.0,0,0.00,,OVC065,0.01,VWS V13.01,2013-05-18 16:07:00,
2013-05-18 09:12:00,51.1,0.0,30.17,ESE,121,0.0,0.0,0,0.00,,OVC065,0.01,VWS V13.01,2013-05-18 16:12:00,
2013-05-18 09:17:00,51.3,0.0,30.17,ESE,121,0.0,0.0,0,0.00,,OVC065,0.01,VWS V13.01,2013-05-18 16:17:00,
2013-05-18 09:22:00,51.5,0.0,30.17,ESE,121,0.0,0.0,0,0.00,,OVC065,0.01,VWS V13.01,2013-05-18 16:22:00,
2013-05-18 09:27:00,51.7,0.0,30.17,ESE,121,0.0,0.0,0,0.00,,OVC065,0.01,VWS V13.01,2013-05-18 16:27:00,
2013-05-18 09:32:00,51.9,0.0,30.17,ESE,121,0.0,0.0,0,0.00,,OVC065,0.01,VWS V13.01,2013-05-18 16:32:00,
2013-05-18 09:37:00,52.1,0.0,30.17,ESE,121,0.0,1.0,0,0.00,,OVC065,0.01,VWS V13.01,2013-05-18 16:37:00,
2013-05-18 09:42:00,52.3,0.0,30.17,SSW,209,1.0,1.0,0,0.00,,OVC065,0.01,VWS V13.01,2013-05-18 16:42:00,
2013-05-18 09:48:00,52.4,0.0,30.17,SW,225,0.0,2.0,0,0.01,,OVC065,0.02,VWS V13.01,2013-05-18 16:48:00,
2013-05-18 09:52:00,52.5,0.0,30.17,SW,225,0.0,2.0,0,0.01,,OVC060,0.02,VWS V13.01,2013-05-18 16:52:00,
2013-05-18 09:58:00,52.7,0.0,30.17,SW,225,0.0,2.0,0,0.01,,OVC060,0.02,VWS V13.01,2013-05-18 16:58:00,
2013-05-18 10:03:00,52.7,0.0,30.17,North,360,0.0,3.0,0,0.01,,OVC060,0.02,VWS V13.01,2013-05-18 17:03:00,
2013-05-18 10:08:00,53.0,0.0,30.17,SW,228,0.0,3.0,0,0.01,,OVC060,0.02,VWS V13.01,2013-05-18 17:08:00,
2013-05-18 10:13:00,53.3,0.0,30.17,West,280,0.0,3.0,0,0.01,,OVC060,0.02,VWS V13.01,2013-05-18 17:13:00,
2013-05-18 10:18:00,53.5,0.0,30.17,SW,219,0.0,2.0,0,0.01,,OVC060,0.02,VWS V13.01,2013-05-18 17:18:00,
2013-05-18 10:23:00,53.6,0.0,30.17,WSW,258,1.0,4.0,0,0.01,,OVC060,0.02,VWS V13.01,2013-05-18 17:23:00,
2013-05-18 10:28:00,53.6,0.0,30.17,South,186,1.0,5.0,0,0.01,,OVC060,0.02,VWS V13.01,2013-05-18 17:28:00,
2013-05-18 10:33:00,53.5,0.0,30.17,West,275,1.0,6.0,0,0.01,,OVC060,0.02,VWS V13.01,2013-05-18 17:33:00,
2013-05-18 10:38:00,53.5,0.0,30.17,SE,139,1.0,6.0,0,0.01,,OVC060,0.02,VWS V13.01,2013-05-18 17:38:00,
2013-05-18 10:43:00,53.5,0.0,30.18,SSW,207,1.0,6.0,0,0.01,,OVC060,0.02,VWS V13.01,2013-05-18 17:43:00,
2013-05-18 10:49:00,53.4,0.0,30.18,SSW,202,1.0,9.0,0,0.00,,OVC060,0.02,VWS V13.01,2013-05-18 17:49:00,
2013-05-18 10:54:00,53.3,0.0,30.18,SSE,165,4.0,9.0,0,0.00,,OVC055,0.02,VWS V13.01,2013-05-18 17:54:00,
2013-05-18 10:59:00,53.4,0.0,30.17,SW,219,0.0,9.0,0,0.00,,OVC055,0.02,VWS V13.01,2013-05-18 17:59:00,
2013-05-18 11:04:00,53.5,-33.0,30.17,North,355,0.0,3.0,2,0.00,,OVC055,0.02,VWS V13.01,2013-05-18 18:04:00,
2013-05-18 11:09:00,53.8,-25.4,30.17,ENE,75,3.0,6.0,3,0.00,,OVC055,0.02,VWS V13.01,2013-05-18 18:09:00,
2013-05-18 11:14:00,54.0,-6.0,30.17,SSE,159,4.0,5.0,8,0.00,,OVC055,0.02,VWS V13.01,2013-05-18 18:14:00,
2013-05-18 11:19:00,54.2,7.6,30.17,West,281,0.0,7.0,15,0.00,,OVC055,0.02,VWS V13.01,2013-05-18 18:19:00,
2013-05-18 11:24:00,54.5,9.2,30.17,West,278,0.0,7.0,16,0.00,,OVC055,0.02,VWS V13.01,2013-05-18 18:24:00,
2013-05-18 11:29:00,54.9,8.1,30.18,WSW,245,1.0,1.0,15,0.00,,OVC055,0.02,VWS V13.01,2013-05-18 18:29:00,
2013-05-18 11:34:00,55.2,18.1,30.18,SSW,199,2.0,5.0,23,0.00,,OVC055,0.02,VWS V13.01,2013-05-18 18:34:00,
2013-05-18 11:39:00,55.3,21.0,30.18,NNW,331,0.0,5.0,26,0.00,,OVC055,0.02,VWS V13.01,2013-05-18 18:39:00,
2013-05-18 11:44:00,55.4,19.2,30.18,South,169,1.0,4.0,24,0.00,,OVC055,0.02,VWS V13.01,2013-05-18 18:44:00,
2013-05-18 11:50:00,55.3,28.1,30.18,SSW,211,1.0,5.0,35,0.00,,OVC050,0.02,VWS V13.01,2013-05-18 18:50:00,
2013-05-18 11:55:00,55.2,21.8,30.18,South,186,3.0,5.0,27,0.00,,OVC050,0.02,VWS V13.01,2013-05-18 18:55:00,
2013-05-18 12:00:00,55.2,16.0,30.19,SE,139,0.0,2.0,21,0.00,,OVC050,0.02,VWS V13.01,2013-05-18 19:00:00,
2013-05-18 12:05:00,55.3,16.0,30.19,WNW,298,0.0,3.0,21,0.00,,OVC050,0.02,VWS V13.01,2013-05-18 19:05:00,
2013-05-18 12:10:00,55.2,16.0,30.20,SSE,157,0.0,7.0,21,0.00,,OVC050,0.02,VWS V13.01,2013-05-18 19:10:00,
2013-05-18 12:15:00,55.1,20.9,30.19,South,175,2.0,5.0,26,0.00,,OVC050,0.02,VWS V13.01,2013-05-18 19:15:00,
2013-05-18 12:20:00,55.1,5.2,30.19,SSE,161,1.0,5.0,13,0.00,,OVC050,0.02,VWS V13.01,2013-05-18 19:20:00,
2013-05-18 12:25:00,55.2,-5.1,30.20,SW,223,0.0,5.0,8,0.00,,OVC050,0.02,VWS V13.01,2013-05-18 19:25:00,
2013-05-18 12:30:00,55.2,9.8,30.20,SSE,159,5.0,7.0,16,0.00,,OVC050,0.02,VWS V13.01,2013-05-18 19:30:00,
2013-05-18 12:35:00,55.0,-2.8,30.20,West,279,0.0,7.0,9,0.00,,OVC050,0.02,VWS V13.01,2013-05-18 19:35:00,
2013-05-18 12:41:00,54.8,0.0,30.20,SE,131,1.0,7.0,0,0.00,,OVC050,0.02,VWS V13.01,2013-05-18 19:41:00,
2013-05-18 12:46:00,54.6,0.0,30.20,ESE,123,4.0,6.0,0,0.00,,OVC050,0.02,VWS V13.01,2013-05-18 19:46:00,
2013-05-18 12:51:00,54.5,0.0,30.20,South,173,5.0,7.0,0,0.00,,OVC050,0.02,VWS V13.01,2013-05-18 19:51:00,
2013-05-18 12:56:00,54.3,0.0,30.20,SW,226,2.0,7.0,0,0.00,,OVC050,0.02,VWS V13.01,2013-05-18 19:56:00,
2013-05-18 13:01:00,54.2,0.0,30.20,SSE,159,0.0,6.0,0,0.00,,OVC050,0.02,VWS V13.01,2013-05-18 20:01:00,
2013-05-18 13:06:00,54.3,0.0,30.20,South,190,0.0,6.0,0,0.00,,OVC050,0.02,VWS V13.01,2013-05-18 20:06:00,
2013-05-18 13:11:00,54.3,0.0,30.21,SSE,163,0.0,6.0,0,0.00,,OVC050,0.02,VWS V13.01,2013-05-18 20:11:00,
2013-05-18 13:16:00,54.4,0.0,30.21,SSE,160,1.0,3.0,0,0.00,,OVC050,0.02,VWS V13.01,2013-05-18 20:16:00,
2013-05-18 13:21:00,54.2,0.0,30.21,SSW,200,1.0,4.0,0,0.00,,OVC050,0.02,VWS V13.01,2013-05-18 20:21:00,
2013-05-18 13:26:00,54.1,0.0,30.21,SSE,157,0.0,4.0,0,0.00,,OVC050,0.02,VWS V13.01,2013-05-18 20:26:00,
2013-05-18 13:31:00,54.1,0.0,30.21,SE,131,2.0,4.0,0,0.00,,OVC050,0.02,VWS V13.01,2013-05-18 20:31:00,
2013-05-18 13:37:00,54.1,0.0,30.21,SE,140,1.0,4.0,0,0.00,,OVC050,0.02,VWS V13.01,2013-05-18 20:37:00,
2013-05-18 13:42:00,54.0,0.0,30.22,NNE,28,0.0,4.0,0,0.00,,OVC050,0.02,VWS V13.01,2013-05-18 20:42:00,
2013-05-18 13:47:00,54.1,0.0,30.22,South,184,0.0,4.0,0,0.00,,OVC050,0.02,VWS V13.01,2013-05-18 20:47:00,
2013-05-18 13:52:00,54.0,0.0,30.22,SW,224,1.0,5.0,0,0.00,,OVC035,0.02,VWS V13.01,2013-05-18 20:52:00,
2013-05-18 13:57:00,54.1,0.0,30.22,SW,235,1.0,5.0,0,0.00,,OVC035,0.02,VWS V13.01,2013-05-18 20:57:00,
2013-05-18 14:02:00,54.3,0.0,30.22,WSW,238,0.0,1.0,0,0.00,,OVC035,0.02,VWS V13.01,2013-05-18 21:02:00,
2013-05-18 14:07:00,54.3,0.0,30.22,SE,136,0.0,2.0,0,0.01,,OVC035,0.03,VWS V13.01,2013-05-18 21:07:00,
2013-05-18 14:12:00,54.5,0.0,30.22,SSE,149,1.0,3.0,0,0.01,,OVC035,0.03,VWS V13.01,2013-05-18 21:12:00,
2013-05-18 14:17:00,54.4,0.0,30.22,SSE,149,0.0,1.0,0,0.01,,OVC035,0.03,VWS V13.01,2013-05-18 21:17:00,
2013-05-18 14:22:00,54.6,0.0,30.22,ESE,115,0.0,1.0,0,0.01,,OVC035,0.03,VWS V13.01,2013-05-18 21:22:00,
2013-05-18 14:28:00,54.7,0.0,30.22,ESE,115,0.0,1.0,0,0.01,,OVC035,0.03,VWS V13.01,2013-05-18 21:28:00,
2013-05-18 14:33:00,54.8,0.0,30.22,ESE,115,0.0,1.0,0,0.01,,OVC035,0.03,VWS V13.01,2013-05-18 21:33:00,
2013-05-18 14:38:00,54.8,0.0,30.22,South,171,0.0,2.0,0,0.01,,OVC035,0.03,VWS V13.01,2013-05-18 21:38:00,
2013-05-18 14:43:00,54.8,0.0,30.22,SW,232,0.0,2.0,0,0.01,,OVC035,0.03,VWS V13.01,2013-05-18 21:43:00,
2013-05-18 14:48:00,54.8,0.0,30.22,WSW,238,0.0,1.0,0,0.01,,OVC035,0.03,VWS V13.01,2013-05-18 21:48:00,
2013-05-18 14:53:00,54.9,0.0,30.22,East,101,0.0,2.0,0,0.01,,OVC035,0.03,VWS V13.01,2013-05-18 21:53:00,
2013-05-18 14:58:00,54.9,0.0,30.22,SE,146,0.0,2.0,0,0.01,,OVC035,0.03,VWS V13.01,2013-05-18 21:58:00,
2013-05-18 15:03:00,55.0,0.0,30.23,SSE,156,1.0,1.0,0,0.01,,OVC035,0.03,VWS V13.01,2013-05-18 22:03:00,
2013-05-18 15:08:00,54.8,0.0,30.23,West,260,0.0,4.0,0,0.01,,OVC035,0.03,VWS V13.01,2013-05-18 22:08:00,
2013-05-18 15:13:00,54.8,0.0,30.23,South,171,3.0,4.0,0,0.01,,OVC035,0.03,VWS V13.01,2013-05-18 22:13:00,
2013-05-18 15:19:00,54.8,0.0,30.23,South,186,2.0,4.0,0,0.00,,OVC035,0.03,VWS V13.01,2013-05-18 22:19:00,
2013-05-18 15:24:00,54.7,0.0,30.23,South,182,0.0,4.0,0,0.00,,OVC035,0.03,VWS V13.01,2013-05-18 22:24:00,
2013-05-18 15:29:00,54.5,0.0,30.23,SSW,201,2.0,4.0,0,0.00,,OVC035,0.03,VWS V13.01,2013-05-18 22:29:00,
2013-05-18 15:34:00,54.6,0.0,30.23,SSW,208,0.0,3.0,0,0.00,,OVC035,0.03,VWS V13.01,2013-05-18 22:34:00,
2013-05-18 15:39:00,54.5,0.0,30.23,SE,128,2.0,6.0,0,0.01,,OVC035,0.04,VWS V13.01,2013-05-18 22:39:00,
2013-05-18 15:44:00,54.4,0.0,30.23,SE,126,3.0,3.0,0,0.01,,OVC035,0.04,VWS V13.01,2013-05-18 22:44:00,
2013-05-18 15:49:00,54.5,0.0,30.23,ESE,123,0.0,3.0,0,0.01,,OVC025,0.04,VWS V13.01,2013-05-18 22:49:00,
2013-05-18 15:54:00,54.6,0.0,30.23,SE,143,1.0,4.0,0,0.01,,OVC025,0.04,VWS V13.01,2013-05-18 22:54:00,
2013-05-18 15:59:00,54.5,0.0,30.23,South,191,0.0,0.0,0,0.01,,OVC025,0.04,VWS V13.01,2013-05-18 22:59:00,
2013-05-18 16:04:00,54.6,0.0,30.23,SW,232,0.0,3.0,0,0.01,,OVC025,0.04,VWS V13.01,2013-05-18 23:04:00,
2013-05-18 16:09:00,54.8,0.0,30.23,East,85,0.0,3.0,0,0.01,,OVC025,0.04,VWS V13.01,2013-05-18 23:09:00,
2013-05-18 16:15:00,54.9,0.0,30.23,NNE,28,0.0,0.0,0,0.01,,OVC025,0.04,VWS V13.01,2013-05-18 23:15:00,
2013-05-18 16:20:00,55.1,0.0,30.23,SSE,160,0.0,4.0,0,0.01,,OVC025,0.04,VWS V13.01,2013-05-18 23:20:00,
2013-05-18 16:25:00,55.1,0.0,30.24,ENE,65,0.0,4.0,0,0.02,,OVC025,0.05,VWS V13.01,2013-05-18 23:25:00,
2013-05-18 16:30:00,55.3,0.0,30.24,WNW,300,0.0,1.0,0,0.02,,OVC025,0.05,VWS V13.01,2013-05-18 23:30:00,
2013-05-18 16:35:00,55.4,0.0,30.24,South,175,0.0,2.0,0,0.02,,OVC025,0.05,VWS V13.01,2013-05-18 23:35:00,
2013-05-18 16:40:00,55.4,0.0,30.24,SE,134,2.0,3.0,0,0.02,,OVC025,0.05,VWS V13.01,2013-05-18 23:40:00,
2013-05-18 16:45:00,55.4,0.0,30.24,SE,145,0.0,2.0,0,0.01,,OVC025,0.05,VWS V13.01,2013-05-18 23:45:00,
2013-05-18 16:50:00,55.4,0.0,30.24,SSE,153,1.0,3.0,0,0.02,,BKN060,0.06,VWS V13.01,2013-05-18 23:50:00,
2013-05-18 16:55:00,55.4,0.0,30.24,SSE,156,0.0,3.0,0,0.02,,BKN060,0.06,VWS V13.01,2013-05-18 23:55:00,
2013-05-18 17:00:00,55.4,0.0,30.24,SSW,213,0.0,2.0,0,0.02,,BKN060,0.06,VWS V13.01,2013-05-19 00:00:00,
2013-05-18 17:05:00,55.4,0.0,30.24,East,82,0.0,2.0,0,0.02,,BKN060,0.06,VWS V13.01,2013-05-19 00:05:00,
2013-05-18 17:11:00,55.6,0.0,30.24,NNW,340,1.0,2.0,0,0.02,,BKN060,0.06,VWS V13.01,2013-05-19 00:11:00,
2013-05-18 17:16:00,55.5,0.0,30.24,East,94,1.0,1.0,0,0.02,,BKN060,0.06,VWS V13.01,2013-05-19 00:16:00,
2013-05-18 17:21:00,55.5,0.0,30.24,West,266,0.0,3.0,0,0.03,,BKN060,0.07,VWS V13.01,2013-05-19 00:21:00,
2013-05-18 17:26:00,55.5,0.0,30.24,SSE,154,4.0,5.0,0,0.03,,BKN060,0.07,VWS V13.01,2013-05-19 00:26:00,
2013-05-18 17:31:00,55.5,0.0,30.24,ESE,123,3.0,3.0,0,0.02,,BKN060,0.07,VWS V13.01,2013-05-19 00:31:00,
2013-05-18 17:36:00,55.5,0.0,30.24,SSE,162,3.0,4.0,0,0.02,,BKN060,0.07,VWS V13.01,2013-05-19 00:36:00,
2013-05-18 17:41:00,55.5,0.0,30.24,SW,219,0.0,4.0,0,0.02,,BKN060,0.07,VWS V13.01,2013-05-19 00:41:00,
2013-05-18 17:46:00,55.6,0.0,30.24,SSE,164,1.0,2.0,0,0.02,,BKN060,0.07,VWS V13.01,2013-05-19 00:46:00,
2013-05-18 17:51:00,55.6,0.0,30.24,SSW,202,2.0,4.0,0,0.02,,BKN060,0.07,VWS V13.01,2013-05-19 00:51:00,
2013-05-18 17:56:00,55.6,0.0,30.25,ESE,121,2.0,4.0,0,0.02,,BKN060,0.07,VWS V13.01,2013-05-19 00:56:00,
2013-05-18 18:02:00,55.6,0.0,30.25,East,101,4.0,4.0,0,0.01,,BKN060,0.07,VWS V13.01,2013-05-19 01:02:00,
2013-05-18 18:07:00,55.6,0.0,30.25,SSE,161,0.0,5.0,0,0.01,,BKN060,0.07,VWS V13.01,2013-05-19 01:07:00,
2013-05-18 18:12:00,55.5,0.0,30.25,East,96,2.0,5.0,0,0.01,,BKN060,0.07,VWS V13.01,2013-05-19 01:12:00,
2013-05-18 18:17:00,55.6,0.0,30.25,ESE,116,0.0,3.0,0,0.01,,BKN060,0.07,VWS V13.01,2013-05-19 01:17:00,
2013-05-18 18:22:00,55.6,0.0,30.25,WSW,254,0.0,3.0,0,0.02,,BKN060,0.08,VWS V13.01,2013-05-19 01:22:00,
2013-05-18 18:27:00,55.6,0.0,30.25,West,267,1.0,3.0,0,0.02,,BKN060,0.08,VWS V13.01,2013-05-19 01:27:00,
2013-05-18 18:32:00,55.5,0.0,30.25,NW,318,0.0,1.0,0,0.01,,BKN060,0.08,VWS V13.01,2013-05-19 01:32:00,
2013-05-18 18:37:00,55.6,0.0,30.25,South,186,0.0,2.0,0,0.01,,BKN060,0.08,VWS V13.01,2013-05-19 01:37:00,
2013-05-18 18:42:00,55.6,0.0,30.25,SW,215,0.0,2.0,0,0.01,,BKN060,0.08,VWS V13.01,2013-05-19 01:42:00,
2013-05-18 18:47:00,55.6,0.0,30.25,NNE,33,0.0,2.0,0,0.01,,BKN060,0.08,VWS V13.01,2013-05-19 01:47:00,
2013-05-18 18:53:00,55.6,0.0,30.25,NNE,33,0.0,2.0,0,0.01,,BKN049,0.08,VWS V13.01,2013-05-19 01:53:00,
2013-05-18 18:58:00,55.7,0.0,30.25,NNE,33,0.0,2.0,0,0.01,,BKN049,0.08,VWS V13.01,2013-05-19 01:58:00,
2013-05-18 19:03:00,55.8,0.0,30.25,NNE,33,0.0,0.0,0,0.01,,BKN049,0.08,VWS V13.01,2013-05-19 02:03:00,
2013-05-18 19:08:00,55.9,0.0,30.25,NNE,33,0.0,0.0,0,0.01,,BKN049,0.08,VWS V13.01,2013-05-19 02:08:00,
2013-05-18 19:13:00,55.9,0.0,30.25,NNE,33,0.0,0.0,0,0.01,,BKN049,0.08,VWS V13.01,2013-05-19 02:13:00,
2013-05-18 19:18:00,56.0,0.0,30.25,NNE,33,0.0,0.0,0,0.01,,BKN049,0.08,VWS V13.01,2013-05-19 02:18:00,
2013-05-18 19:23:00,55.9,0.0,30.26,SSW,195,0.0,2.0,0,0.01,,BKN049,0.08,VWS V13.01,2013-05-19 02:23:00,
2013-05-18 19:28:00,55.8,0.0,30.26,SSW,203,0.0,3.0,0,0.01,,BKN049,0.08,VWS V13.01,2013-05-19 02:28:00,
2013-05-18 19:33:00,55.8,0.0,30.26,SSW,209,0.0,3.0,0,0.00,,BKN049,0.08,VWS V13.01,2013-05-19 02:33:00,
2013-05-18 19:38:00,55.7,0.0,30.26,SSW,209,0.0,3.0,0,0.00,,BKN049,0.08,VWS V13.01,2013-05-19 02:38:00,
2013-05-18 19:43:00,55.6,0.0,30.26,SSW,209,0.0,3.0,0,0.00,,BKN049,0.08,VWS V13.01,2013-05-19 02:43:00,
2013-05-18 19:49:00,55.6,0.0,30.26,SSW,209,0.0,0.0,0,0.00,,BKN049,0.08,VWS V13.01,2013-05-19 02:49:00,
2013-05-18 19:54:00,55.5,0.0,30.26,SSW,209,0.0,0.0,0,0.00,,BKN070,0.08,VWS V13.01,2013-05-19 02:54:00,
2013-05-18 19:59:00,55.4,0.0,30.27,South,188,0.0,1.0,0,0.00,,BKN070,0.08,VWS V13.01,2013-05-19 02:59:00,
2013-05-18 20:04:00,55.3,0.0,30.27,South,188,0.0,0.0,0,0.00,,BKN070,0.08,VWS V13.01,2013-05-19 03:04:00,
2013-05-18 20:09:00,55.3,0.0,30.27,South,188,0.0,0.0,0,0.00,,BKN070,0.08,VWS V13.01,2013-05-19 03:09:00,
2013-05-18 20:14:00,55.2,0.0,30.27,South,188,0.0,0.0,0,0.00,,BKN070,0.08,VWS V13.01,2013-05-19 03:14:00,
2013-05-18 20:19:00,55.1,0.0,30.28,South,188,0.0,0.0,0,0.00,,BKN070,0.08,VWS V13.01,2013-05-19 03:19:00,
2013-05-18 20:24:00,55.0,0.0,30.27,SE,135,1.0,2.0,0,0.00,,BKN070,0.08,VWS V13.01,2013-05-19 03:24:00,
2013-05-18 20:29:00,54.9,0.0,30.27,South,180,0.0,0.0,0,0.00,,BKN070,0.08,VWS V13.01,2013-05-19 03:29:00,
2013-05-18 20:34:00,54.9,0.0,30.28,South,180,2.0,2.0,0,0.00,,BKN070,0.08,VWS V13.01,2013-05-19 03:34:00,
2013-05-18 20:39:00,54.7,0.0,30.28,SSE,160,0.0,4.0,0,0.00,,BKN070,0.08,VWS V13.01,2013-05-19 03:39:00,
2013-05-18 20:44:00,54.7,0.0,30.28,SSW,202,0.0,1.0,0,0.00,,BKN070,0.08,VWS V13.01,2013-05-19 03:44:00,
2013-05-18 20:49:00,54.6,0.0,30.29,SSW,202,0.0,1.0,0,0.00,,BKN039,0.08,VWS V13.01,2013-05-19 03:49:00,
2013-05-18 20:54:00,54.6,0.0,30.29,SSW,202,0.0,1.0,0,0.00,,BKN039,0.08,VWS V13.01,2013-05-19 03:54:00,
2013-05-18 20:59:00,54.5,0.0,30.29,SSW,202,0.0,0.0,0,0.00,,BKN039,0.08,VWS V13.01,2013-05-19 03:59:00,
2013-05-18 21:01:00,54.5,0.0,30.29,SSW,202,0.0,0.0,0,0.00,,BKN039,0.08,VWS V13.01,2013-05-19 04:01:00,
2013-05-18 21:02:00,54.5,0.0,30.29,SSW,202,0.0,0.0,0,0.00,,BKN039,0.08,VWS V13.01,2013-05-19 04:02:00,
2013-05-18 21:07:00,54.5,0.0,30.29,SSW,208,0.0,1.0,0,0.01,,BKN039,0.09,VWS V13.01,2013-05-19 04:07:00,
2013-05-18 21:12:00,54.4,0.0,30.29,SSW,208,0.0,1.0,0,0.01,,BKN039,0.09,VWS V13.01,2013-05-19 04:12:00,
2013-05-18 21:17:00,54.4,0.0,30.29,SSW,208,0.0,0.0,0,0.01,,BKN039,0.09,VWS V13.01,2013-05-19 04:17:00,
2013-05-18 21:22:00,54.3,0.0,30.30,SSW,208,0.0,0.0,0,0.01,,BKN039,0.09,VWS V13.01,2013-05-19 04:22:00,
2013-05-18 21:27:00,54.3,0.0,30.30,SSW,208,0.0,0.0,0,0.01,,BKN039,0.09,VWS V13.01,2013-05-19 04:27:00,
2013-05-18 21:32:00,54.2,0.0,30.30,SSW,208,0.0,0.0,0,0.01,,BKN039,0.09,VWS V13.01,2013-05-19 04:32:00,
2013-05-18 21:37:00,54.2,0.0,30.30,SSW,208,0.0,0.0,0,0.01,,BKN039,0.09,VWS V13.01,2013-05-19 04:37:00,
2013-05-18 21:42:00,54.1,0.0,30.31,SSW,208,0.0,0.0,0,0.01,,BKN039,0.09,VWS V13.01,2013-05-19 04:42:00,
2013-05-18 21:47:00,54.1,0.0,30.31,SSW,208,0.0,0.0,0,0.01,,BKN039,0.09,VWS V13.01,2013-05-19 04:47:00,
2013-05-18 21:52:00,54.1,0.0,30.31,SSW,208,0.0,0.0,0,0.01,,BKN034,0.09,VWS V13.01,2013-05-19 04:52:00,
2013-05-18 21:57:00,54.1,0.0,30.31,SSW,208,0.0,0.0,0,0.01,,BKN034,0.09,VWS V13.01,2013-05-19 04:57:00,
2013-05-18 22:02:00,54.0,0.0,30.31,SSW,208,0.0,0.0,0,0.01,,BKN034,0.09,VWS V13.01,2013-05-19 05:02:00,
2013-05-18 22:08:00,54.0,0.0,30.31,SSW,208,0.0,0.0,0,0.01,,BKN034,0.09,VWS V13.01,2013-05-19 05:08:00,
2013-05-18 22:13:00,54.0,0.0,30.31,SSW,208,0.0,0.0,0,0.01,,BKN034,0.09,VWS V13.01,2013-05-19 05:13:00,
2013-05-18 22:18:00,54.0,0.0,30.31,SSW,208,0.0,0.0,0,0.00,,BKN034,0.09,VWS V13.01,2013-05-19 05:18:00,
2013-05-18 22:23:00,53.9,0.0,30.31,SSW,208,1.0,2.0,0,0.00,,BKN034,0.09,VWS V13.01,2013-05-19 05:23:00,
2013-05-18 22:28:00,53.9,0.0,30.31,SSW,208,0.0,2.0,0,0.00,,BKN034,0.09,VWS V13.01,2013-05-19 05:28:00,
2013-05-18 22:33:00,53.9,0.0,30.31,SSW,208,0.0,0.0,0,0.00,,BKN034,0.09,VWS V13.01,2013-05-19 05:33:00,
2013-05-18 22:38:00,53.9,0.0,30.31,SSW,208,0.0,0.0,0,0.00,,BKN034,0.09,VWS V13.01,2013-05-19 05:38:00,
2013-05-18 22:43:00,53.9,0.0,30.31,SSW,208,0.0,0.0,0,0.00,,BKN034,0.09,VWS V13.01,2013-05-19 05:43:00,
2013-05-18 22:48:00,53.9,0.0,30.31,SSW,208,0.0,0.0,0,0.00,,BKN034,0.09,VWS V13.01,2013-05-19 05:48:00,
2013-05-18 22:53:00,53.8,0.0,30.32,SSW,208,0.0,0.0,0,0.00,,SCT038,0.09,VWS V13.01,2013-05-19 05:53:00,
2013-05-18 22:59:00,53.8,0.0,30.32,SSW,208,0.0,0.0,0,0.00,,SCT038,0.09,VWS V13.01,2013-05-19 05:59:00,
2013-05-18 23:04:00,53.8,0.0,30.32,SSW,208,0.0,0.0,0,0.00,,SCT038,0.09,VWS V13.01,2013-05-19 06:04:00,
2013-05-18 23:09:00,53.8,0.0,30.32,SSW,208,0.0,0.0,0,0.00,,SCT038,0.09,VWS V13.01,2013-05-19 06:09:00,
2013-05-18 23:14:00,53.8,0.0,30.32,SSW,208,0.0,0.0,0,0.00,,SCT038,0.09,VWS V13.01,2013-05-19 06:14:00,
2013-05-18 23:19:00,53.7,0.0,30.32,SSW,208,0.0,0.0,0,0.00,,SCT038,0.09,VWS V13.01,2013-05-19 06:19:00,
2013-05-18 23:24:00,53.7,0.0,30.32,SSW,208,1.0,2.0,0,0.00,,SCT038,0.09,VWS V13.01,2013-05-19 06:24:00,
2013-05-18 23:29:00,53.7,0.0,30.32,SSW,208,0.0,0.0,0,0.00,,SCT038,0.09,VWS V13.01,2013-05-19 06:29:00,
2013-05-18 23:34:00,53.6,0.0,30.31,SSW,208,1.0,2.0,0,0.00,,SCT038,0.09,VWS V13.01,2013-05-19 06:34:00,
2013-05-18 23:39:00,53.6,0.0,30.32,SSW,208,1.0,2.0,0,0.00,,SCT038,0.09,VWS V13.01,2013-05-19 06:39:00,
2013-05-18 23:44:00,53.6,0.0,30.32,SSW,208,0.0,0.0,0,0.00,,SCT038,0.10,VWS V13.01,2013-05-19 06:44:00,
2013-05-18 23:49:00,53.6,0.0,30.32,SSW,208,0.0,0.0,0,0.01,,OVC019,0.10,VWS V13.01,2013-05-19 06:49:00,
2013-05-18 23:54:00,53.6,0.0,30.32,SSW,208,0.0,1.0,0,0.01,,OVC019,0.10,VWS V13.01,2013-05-19 06:54:00,